Minneapolis Flying Cloud, MN

5:29 AM CDT on May 25, 2017 (GMT -0500)
Flying Cloud

Weather History for KFCM - May, 2013

Change the Weather History Date:

Sunday, May 5, 2013

  Actual Average Record
Temperature  
Mean Temperature 52 °F -  
Max Temperature 66 °F 65 °F 91 °F (2000)
Min Temperature 39 °F 44 °F 30 °F (2002)
Degree Days  
Heating Degree Days 12    
Growing Degree Days 2 (Base 50)    
Moisture  
Dew Point 40 °F    
Average Humidity 71    
Maximum Humidity 89    
Minimum Humidity 48    
Precipitation  
Precipitation 0.01 in - - ()
Sea Level Pressure  
Sea Level Pressure 30.14 in    
Wind  
Wind Speed 5 mph (North)    
Max Wind Speed 9 mph    
Max Gust Speed -    
Visibility 10 miles    
Events Rain    
Averages and records for this station are not official NWS values.
T = Trace of Precipitation, MM = Missing Value Source: NWS Daily Summary

Daily Weather History Graph

Daily Weather History Graph

Search for Another Location

Airport or City:

Trip Planner

Search our weather history database for the weather conditions in past years. The results will help you decide how hot, cold, wet, or windy it might be!

Date:

Astronomy

May. 05, 2013 Rise Set
Actual Time 5:57 AM CDT 8:24 PM CDT
Civil Twilight 5:24 AM CDT 8:57 PM CDT
Nautical Twilight 4:43 AM CDT 9:38 PM CDT
Astronomical Twilight 3:57 AM CDT 10:24 PM CDT
Moon 3:39 AM CDT (5/5) 4:14 PM CDT (5/5)
Length of Visible Light 15h 32m
Length of Day
14h 26m
Waning Crescent, 18% of the Moon is Illuminated
May 5
Waning Crescent
May 9
New
May 17
First Quarter
May 24
Full
May 31
Last Quarter

Hourly Weather History & Observations

Time (CDT) Temp. Windchill Dew Point Humidity Pressure Visibility Wind Dir Wind Speed Gust Speed Precip Events Conditions
12:34 AM 42.8 °F 38.6 °F 35.6 °F 76% 30.16 in 10.0 mi NE 6.9 mph - 0.00 in   Overcast
12:53 AM 41.0 °F 36.4 °F 36.0 °F 82% 30.19 in 10.0 mi NNE 6.9 mph - 0.00 in   Overcast
1:53 AM 41.0 °F 37.1 °F 36.0 °F 82% 30.16 in 10.0 mi NNE 5.8 mph - 0.01 in   Overcast
2:53 AM 39.9 °F 36.7 °F 35.1 °F 83% 30.15 in 10.0 mi North 4.6 mph - 0.00 in Rain Light Rain
3:39 AM 39.2 °F 35.0 °F 35.6 °F 87% 30.14 in 10.0 mi North 5.8 mph - 0.00 in   Mostly Cloudy
3:53 AM 39.9 °F 36.7 °F 35.1 °F 83% 30.16 in 10.0 mi North 4.6 mph - 0.00 in   Overcast
4:14 AM 39.2 °F 33.6 °F 35.6 °F 87% 30.14 in 10.0 mi North 8.1 mph - N/A   Overcast
4:53 AM 39.0 °F 34.0 °F 35.1 °F 86% 30.16 in 10.0 mi North 6.9 mph - N/A   Overcast
5:53 AM 39.0 °F 34.8 °F 36.0 °F 89% 30.17 in 10.0 mi North 5.8 mph - N/A   Overcast
6:53 AM 39.0 °F 34.0 °F 35.1 °F 86% 30.18 in 10.0 mi NNE 6.9 mph - N/A   Overcast
7:26 AM 39.2 °F 33.0 °F 35.6 °F 87% 30.15 in 10.0 mi North 9.2 mph - N/A   Overcast
7:53 AM 41.0 °F 36.4 °F 35.1 °F 79% 30.18 in 10.0 mi North 6.9 mph - N/A   Overcast
8:00 AM 41.0 °F 37.1 °F 35.6 °F 81% 30.16 in 10.0 mi North 5.8 mph - N/A   Mostly Cloudy
8:53 AM 44.1 °F 40.1 °F 36.0 °F 73% 30.18 in 10.0 mi NNE 6.9 mph - N/A   Overcast
9:53 AM 44.1 °F 40.8 °F 36.0 °F 73% 30.18 in 10.0 mi North 5.8 mph - N/A   Overcast
10:53 AM 48.0 °F - 37.9 °F 68% 30.17 in 10.0 mi North 4.6 mph - N/A   Overcast
11:40 AM 48.2 °F - 39.2 °F 71% 30.15 in 10.0 mi NNW 5.8 mph - N/A   Scattered Clouds
11:53 AM 50.0 °F - 39.9 °F 68% 30.17 in 10.0 mi Calm Calm - N/A   Clear
12:53 PM 55.0 °F - 41.0 °F 59% 30.15 in 10.0 mi Variable 5.8 mph - N/A   Clear
1:53 PM 57.0 °F - 42.1 °F 57% 30.14 in 10.0 mi Calm Calm - N/A   Clear
2:53 PM 59.0 °F - 43.0 °F 55% 30.12 in 10.0 mi WNW 3.5 mph - N/A   Partly Cloudy
3:53 PM 62.1 °F - 44.1 °F 52% 30.10 in 10.0 mi Calm Calm - N/A   Scattered Clouds
4:53 PM 64.9 °F - 45.0 °F 48% 30.09 in 10.0 mi NW 4.6 mph - N/A   Partly Cloudy
5:53 PM 66.0 °F - 46.0 °F 48% 30.08 in 10.0 mi Calm Calm - N/A   Clear
6:53 PM 66.0 °F - 46.9 °F 50% 30.08 in 10.0 mi Calm Calm - N/A   Clear
7:53 PM 64.0 °F - 46.0 °F 52% 30.08 in 10.0 mi Calm Calm - N/A   Clear
8:53 PM 61.0 °F - 46.0 °F 58% 30.08 in 10.0 mi WNW 4.6 mph - N/A   Clear
9:53 PM 55.9 °F - 46.9 °F 72% 30.09 in 10.0 mi North 3.5 mph - N/A   Clear
10:53 PM 54.0 °F - 46.0 °F 75% 30.09 in 10.0 mi Calm Calm - N/A   Clear
11:53 PM 53.1 °F - 46.0 °F 77% 30.09 in 10.0 mi NW 4.6 mph - N/A   Clear